Regional Weather Roundup
Issued by NWS

Home | Current Version | Previous Version | Text Only | Print | Product List | Glossary On
Versions: 1 2 3 4 5 6 7 8 9 10 11 12 13 14 15 16 17 18 19 20 21 22 23 24 25 26 27 28 29 30 31 32 33 34 35 36 37 38 39 40 41 42 43 44 45 46 47 48 49 50
000
ASUS44 KMEG 290010
RWRTN
TENNESSEE HOURLY STATE WEATHER ROUNDUP
NATIONAL WEATHER SERVICE MEMPHIS TN
700 PM CDT MON JUL 28 2014

TNZ002-004-019-021-049-052-054-088>092-290100-
WEST TENNESSEE

CITY           SKY/WX    TMP DP  RH WIND       PRES   REMARKS
MEMPHIS INTL   MOSUNNY   82  62  50 N9        30.02F
NWS MEMPHIS      N/A     82 N/A N/A MISG        N/A
JACKSON        SUNNY     80  62  54 N9        30.02S
DYERSBURG      MOSUNNY   81  59  47 NW6       30.03S
UNION CITY     SUNNY     79  63  57 N9        30.02S
PARIS          PTSUNNY   74  61  63 N6        30.03S
LEXINGTON      SUNNY     77  63  61 NW6       30.01S
SAVANNAH       SUNNY     79  63  57 NW6       30.02R
$$

TNZ008-025-027-028-033-062-065-066-290100-
NORTH MIDDLE TENNESSEE

CITY           SKY/WX    TMP DP  RH WIND       PRES   REMARKS
NASHVILLE      PTCLDY    80  59  48 N8        29.99R
DICKSON        MOSUNNY   75  61  60 N8        30.01S
PORTLAND       CLEAR     75  57  53 N9        29.99S
CLARKSVILLE    PTSUNNY   78  58  49 N12       30.00S
LEBANON        PTCLDY    78  58  50 N8        29.98S
SMYRNA         MOCLDY    81  60  48 N10       30.00R
MURFREESBORO   MOCLDY    79  58  48 VRB7      29.98S
COOKEVILLE     CLEAR     75  63  64 N5        29.99S
CROSSVILLE     PTCLDY    74  59  59 NW6       30.03R
$$

TNZ061-075-076-078-094-096-097-290100-
SOUTH MIDDLE TENNESSEE

CITY           SKY/WX    TMP DP  RH WIND       PRES   REMARKS
LEWISBURG      CLEAR     79  61  53 VRB6      29.99S
FAYETTEVILLE   CLEAR     77  61  57 N6        30.00R
TULLAHOMA      CLEAR     75  57  53 NW7       30.01R
WINCHESTER     MOCLDY    75  61  60 N6        30.00R
MCMINNVILLE    MOCLDY    77  63  61 N8        30.00R
COLUMBIA       PTCLDY    81  63  54 NW5       29.99S
SHELBYVILLE    MOCLDY    79  63  57 N8        30.00R
$$

TNZ017-018-042-046-047-290100-
NORTHEAST TENNESSEE

CITY           SKY/WX    TMP DP  RH WIND       PRES   REMARKS
TRI CITIES     MOCLDY    72  57  59 NW7       29.96R
ELIZABETHTON   MOCLDY    70  59  68 VRB3        N/A
$$

TNZ012-013-036-069-073-074-290100-
CENTRAL EAST TENNESSEE

CITY           SKY/WX    TMP DP  RH WIND       PRES   REMARKS
KNOXVILLE      MOCLDY    76  61  59 N5        29.95R
OAK RIDGE      MOCLDY    78  60  53 VRB3      29.98R
GATLINBURG     PTCLDY    73  61  64 NW6       29.96R
MORRISTOWN     PTCLDY    73  61  64 NW8       29.98R
$$

TNZ083-085-099-290100-
SOUTHEAST TENNESSEE

CITY           SKY/WX    TMP DP  RH WIND       PRES   REMARKS
CHATTANOOGA    PTCLDY    81  58  45 N13       29.96S
$$

SKY/WX REPORTED AS FAIR MEANS FEW OR NO CLOUDS BELOW
12 THOUSAND FEET.



USA.gov is the U.S. government's official web portal to all federal, state and local government web resources and services.